N4YHC Weather Reports


time (UTC)temp
C
wind
direction
speed
KPH
gust
KPH
rain 1hr
cm
rain 24hr
cm
rain mn
cm
humidity
%
barometer
mb
20260507155959 13 297 6.4 12.9 0.00 0.00 0.00 50 1014.7
20260507155431 12 191 8.0 11.3 0.00 0.00 0.00 48 1014.7
20260507154441 12 241 3.2 11.3 0.00 0.00 0.00 46 1014.7
20260507153913 12 266 6.4 11.3 0.00 0.00 0.00 49 1014.7
20260507153447 12 224 4.8 8.0 0.00 0.00 0.00 46 1014.7
20260507152419 12 285 4.8 6.4 0.00 0.00 0.00 45 1014.7
20260507151953 12 263 3.2 9.7 0.00 0.00 0.00 52 1014.7
20260507151426 12 304 6.4 9.7 0.00 0.00 0.00 52 1014.6
20260507150435 11 295 4.8 11.3 0.00 0.00 0.00 47 1014.6
20260507145946 11 220 4.8 11.3 0.00 0.00 0.00 49 1014.7
20260507145419 11 232 1.6 9.7 0.00 0.00 0.00 49 1014.6
20260507143931 11 228 6.4 12.9 0.00 0.00 0.00 48 1014.7
20260507143505 11 235 9.7 12.9 0.00 0.00 0.00 51 1014.7
20260507142937 11 260 6.4 11.3 0.00 0.00 0.00 51 1014.8
20260507142410 11 291 6.4 11.3 0.00 0.00 0.00 55 1014.8
20260507141942 11 24 6.4 11.3 0.00 0.00 0.00 50 1014.7
20260507141415 10 21 8.0 11.3 0.00 0.00 0.00 51 1014.8
20260507140949 10 303 4.8 11.3 0.00 0.00 0.00 51 1014.8
20260507135439 10 351 4.8 9.7 0.00 0.00 0.00 52 1014.9
20260507134912 10 292 3.2 8.0 0.00 0.00 0.00 52 1014.8
20260507134446 10 48 3.2 4.8 0.00 0.00 0.00 54 1014.7
20260507133919 10 291 1.6 6.4 0.00 0.00 0.00 58 1014.7
20260507132929 10 325 1.6 8.0 0.00 0.00 0.00 58 1014.8
20260507131925 9 349 3.2 6.4 0.00 0.00 0.00 59 1014.8
20260507131458 9 281 3.2 14.5 0.00 0.00 0.00 60 1014.9
20260507130932 9 344 3.2 14.5 0.00 0.00 0.00 61 1014.7
20260507130505 8 302 0.0 6.4 0.00 0.00 0.00 63 1014.7
20260507125915 8 328 3.2 6.4 0.00 0.00 0.00 68 1014.7
20260507124908 8 291 1.6 6.4 0.00 0.00 0.00 64 1014.6
20260507124442 8 14 6.4 9.7 0.00 0.00 0.00 64 1014.7
20260507123915 8 291 0.0 9.7 0.00 0.00 0.00 67 1014.8
20260507123449 8 351 3.2 4.8 0.00 0.00 0.00 68 1014.8
20260507122922 8 36 3.2 4.8 0.00 0.00 0.00 70 1014.8
20260507122456 7 291 3.2 4.8 0.00 0.00 0.00 71 1014.9
20260507121928 7 320 0.0 4.8 0.00 0.00 0.00 73 1014.8
20260507120925 6 294 1.6 6.4 0.00 0.00 0.00 75 1014.8
20260507120459 6 294 0.0 6.4 0.00 0.00 0.00 76 1014.8
20260507115928 6 293 1.6 4.8 0.00 0.00 0.00 77 1014.7
20260507114456 6 332 0.0 1.6 0.00 0.00 0.00 80 1014.8
20260507113929 5 330 0.0 1.6 0.00 0.00 0.00 81 1014.7
20260507112925 5 329 0.0 3.2 0.00 0.00 0.00 83 1014.8
20260507112459 5 343 0.0 1.6 0.00 0.00 0.00 84 1014.7
20260507111931 5 343 0.0 3.2 0.00 0.00 0.00 84 1014.5
20260507111506 5 343 0.0 3.2 0.00 0.00 0.00 85 1014.5
20260507110935 5 343 0.0 1.6 0.00 0.00 0.00 85 1014.5
20260507110408 5 343 0.0 0.0 0.00 0.00 0.00 85 1014.4
20260507105918 5 343 0.0 0.0 0.00 0.00 0.00 85 1014.3
20260507105452 5 343 0.0 0.0 0.00 0.00 0.00 85 1014.2
20260507104908 5 343 0.0 0.0 0.00 0.00 0.00 84 1014.1
20260507104443 5 343 0.0 0.0 0.00 0.00 0.00 84 1013.9
20260507103915 5 343 0.0 1.6 0.00 0.00 0.00 84 1013.9
20260507103449 5 343 0.0 1.6 0.00 0.00 0.00 84 1013.9
20260507102922 5 343 0.0 3.2 0.00 0.00 0.00 83 1014.0
20260507102455 5 343 0.0 3.2 0.00 0.00 0.00 83 1014.0
20260507101928 6 343 0.0 0.0 0.00 0.00 0.00 83 1014.0
20260507100440 6 343 0.0 3.2 0.00 0.00 0.00 82 1014.1
20260507095952 6 343 1.6 3.2 0.00 0.00 0.00 82 1014.1
20260507095425 6 343 0.0 1.6 0.00 0.00 0.00 81 1014.1
20260507092942 6 343 0.0 3.2 0.00 0.00 0.00 80 1014.0
20260507091939 6 349 0.0 3.2 0.00 0.00 0.00 81 1013.9
20260507091412 6 349 0.0 4.8 0.00 0.00 0.00 82 1013.8
20260507090946 6 350 3.2 6.4 0.00 0.00 0.00 84 1013.7
20260507090419 6 16 1.6 6.4 0.00 0.00 0.00 84 1013.8
20260507084930 6 306 0.0 0.0 0.00 0.00 0.00 85 1013.8
20260507083455 6 306 0.0 0.0 0.00 0.00 0.00 85 1013.7
20260507082505 6 306 0.0 0.0 0.00 0.00 0.00 85 1013.4
20260507081454 7 306 0.0 0.0 0.00 0.00 0.00 84 1013.4
20260507080912 7 306 0.0 0.0 0.00 0.00 0.00 84 1013.4
20260507080445 7 306 0.0 0.0 0.00 0.00 0.00 84 1013.4
20260507075957 7 306 0.0 0.0 0.00 0.00 0.00 84 1013.4
20260507075430 7 306 0.0 0.0 0.00 0.00 0.00 84 1013.4
20260507074420 7 306 0.0 1.6 0.00 0.00 0.00 83 1013.3
20260507073429 7 306 0.0 1.6 0.00 0.00 0.00 83 1013.3
20260507073003 7 306 0.0 1.6 0.00 0.00 0.00 83 1013.3
20260507072419 7 306 0.0 0.0 0.00 0.00 0.00 83 1013.3
20260507071953 7 306 0.0 0.0 0.00 0.00 0.00 83 1013.4
20260507071426 7 306 0.0 1.6 0.00 0.00 0.00 83 1013.5
20260507071000 7 306 0.0 1.6 0.00 0.00 0.00 83 1013.5
20260507070432 7 306 0.0 0.0 0.00 0.00 0.00 83 1013.5
20260507065943 7 306 0.0 3.2 0.00 0.00 0.00 84 1013.5
20260507065416 7 306 1.6 3.2 0.00 0.00 0.00 84 1013.5
20260507063927 7 306 0.0 1.6 0.00 0.00 0.00 87 1013.5
20260507062940 7 306 0.0 0.0 0.00 0.00 0.00 88 1013.5
20260507062411 7 306 0.0 0.0 0.00 0.00 0.00 89 1013.7
20260507061945 7 306 0.0 0.0 0.00 0.00 0.00 89 1013.7
20260507060436 7 306 0.0 0.0 0.00 0.00 0.00 89 1013.5
20260507055913 7 306 0.0 0.0 0.00 0.00 0.00 89 1013.6
20260507055420 7 306 0.0 0.0 0.00 0.00 0.00 89 1013.5
20260507054908 7 306 0.0 0.0 0.00 0.00 0.00 89 1013.5
20260507054416 7 306 0.0 0.0 0.00 0.00 0.00 89 1013.6
20260507053923 7 306 0.0 0.0 0.00 0.00 0.00 89 1013.6
20260507053411 7 306 0.0 0.0 0.00 0.00 0.00 89 1013.7
20260507052919 7 306 0.0 0.0 0.00 0.00 0.00 89 1013.7
20260507052426 7 306 0.0 0.0 0.00 0.00 0.00 89 1013.6
20260507050917 7 306 0.0 0.0 0.00 0.00 0.00 88 1013.6
20260507050425 7 306 0.0 0.0 0.00 0.00 0.00 88 1013.5
20260507045910 7 306 0.0 0.0 0.00 0.00 0.00 88 1013.7
20260507045417 7 306 0.0 0.0 0.00 0.00 0.00 87 1013.8
20260507043926 7 306 0.0 0.0 0.00 0.00 0.00 86 1013.8
20260507043413 7 306 0.0 0.0 0.00 0.00 0.00 85 1013.8
20260507042921 8 306 0.0 0.0 0.00 0.00 0.00 85 1013.9
20260507041923 8 306 0.0 0.0 0.00 0.00 0.00 83 1013.7
20260507041411 8 306 0.0 0.0 0.00 0.00 0.00 82 1013.7
20260507040919 8 306 0.0 0.0 0.00 0.00 0.00 81 1013.9
20260507040426 8 306 0.0 0.0 0.00 0.00 0.00 81 1013.9
20260507035951 8 306 0.0 0.0 0.00 0.00 1.24 79 1013.9
20260507033925 8 306 0.0 1.6 0.00 0.00 1.24 82 1013.6
20260507033459 8 306 0.0 0.0 0.00 0.00 1.24 83 1013.6
20260507032913 8 306 0.0 0.0 0.00 0.00 1.24 83 1013.7
20260507032445 8 306 0.0 0.0 0.00 0.00 1.24 82 1013.8
20260507031916 8 306 0.0 0.0 0.00 0.00 1.24 82 1013.7
20260507031449 8 306 0.0 0.0 0.00 0.00 1.24 81 1013.8
20260507030920 8 306 0.0 0.0 0.00 0.00 1.24 80 1013.7
20260507030445 8 306 0.0 0.0 0.00 1.52 1.24 80 1013.8
20260507025444 9 306 0.0 0.0 0.00 1.52 1.24 80 1013.8
20260507024934 9 306 0.0 0.0 0.00 1.52 1.24 80 1013.7
20260507023935 9 306 0.0 0.0 0.00 1.52 1.24 79 1013.8
20260507022932 10 306 0.0 0.0 0.00 1.52 1.24 77 1013.6
20260507020952 10 306 0.0 0.0 0.00 1.85 1.24 74 1013.4
20260507020424 10 306 0.0 0.0 0.00 1.85 1.24 74 1013.4
20260507015934 10 306 0.0 0.0 0.00 1.85 1.24 73 1013.3
20260507015407 10 306 0.0 0.0 0.00 1.85 1.24 73 1013.4
20260507014941 10 306 0.0 0.0 0.00 1.85 1.24 73 1013.4
20260507013938 11 306 0.0 0.0 0.00 1.85 1.24 73 1013.3
20260507013411 11 306 0.0 0.0 0.00 1.85 1.24 74 1013.2
20260507011455 11 306 0.0 0.0 0.00 1.85 1.24 69 1013.0
20260507010928 12 306 0.0 0.0 0.00 1.91 1.24 67 1013.0
20260507005955 12 306 0.0 0.0 0.00 1.91 1.24 66 1012.8
20260507004948 12 306 0.0 0.0 0.00 1.91 1.24 64 1012.9
20260507003956 12 306 0.0 1.6 0.00 1.91 1.24 62 1012.8
20260507003426 13 306 1.6 4.8 0.00 1.91 1.24 60 1012.9
20260507002957 13 306 1.6 4.8 0.00 1.91 1.24 61 1012.8
20260507002428 13 302 1.6 4.8 0.00 1.91 1.24 59 1012.9
20260507001422 13 307 1.6 4.8 0.00 1.91 1.24 59 1012.6
20260507000953 13 308 1.6 8.0 0.00 1.96 1.24 59 1012.6
20260507000424 13 289 0.0 8.0 0.00 1.96 1.24 59 1012.6
20260506235953 13 264 3.2 9.7 0.00 1.96 1.24 60 1012.5
20260506235425 13 288 4.8 9.7 0.00 1.96 1.24 59 1012.5
20260506234956 13 12 1.6 6.4 0.00 1.96 1.24 58 1012.6
20260506234428 14 291 1.6 4.8 0.00 1.96 1.24 57 1012.4
20260506234000 14 291 3.2 6.4 0.00 1.96 1.24 58 1012.3
20260506233415 14 349 3.2 6.4 0.00 1.96 1.24 58 1012.3
20260506232947 14 346 1.6 8.0 0.00 1.96 1.24 58 1012.2
20260506232417 14 296 3.2 8.0 0.00 1.96 1.24 57 1012.1
20260506231949 14 303 1.6 6.4 0.00 1.96 1.24 58 1012.2
20260506230933 14 287 6.4 8.0 0.00 2.03 1.24 56 1011.9
20260506230504 14 260 3.2 8.0 0.00 2.03 1.24 57 1011.8
20260506225436 14 284 3.2 9.7 0.00 2.03 1.24 56 1011.9
20260506224446 14 289 4.8 6.4 0.00 2.03 1.24 56 1012.0
20260506223918 14 303 3.2 6.4 0.00 2.03 1.24 56 1012.0
20260506220930 14 294 3.2 4.8 0.00 2.06 1.24 54 1012.1
20260506220502 14 295 0.0 4.8 0.00 2.06 1.24 53 1012.1
20260506215002 15 261 3.2 8.0 0.00 2.06 1.24 53 1012.4
20260506214433 15 235 6.4 11.3 0.00 2.06 1.24 51 1012.4
20260506214005 15 320 1.6 11.3 0.00 2.06 1.24 52 1012.4
20260506213437 15 336 3.2 8.0 0.00 2.06 1.24 52 1012.3
20260506211942 15 297 1.6 4.8 0.00 2.06 1.24 53 1012.1
20260506211413 15 15 4.8 8.0 0.00 2.06 1.24 51 1012.1
20260506210946 15 291 4.8 8.0 0.00 2.34 1.24 50 1012.2
20260506210417 15 272 3.2 6.4 0.00 2.34 1.24 54 1012.1
20260506204938 15 327 3.2 8.0 0.00 2.34 1.24 51 1011.9
20260506203934 15 294 6.4 11.3 0.00 2.34 1.24 54 1011.7
20260506203406 15 31 8.0 11.3 0.00 2.34 1.24 52 1011.8
20260506202940 15 284 4.8 6.4 0.00 2.34 1.24 54 1011.9
20260506202413 15 293 4.8 6.4 0.00 2.34 1.24 57 1011.9
20260506201947 15 225 3.2 4.8 0.00 2.34 1.24 56 1011.9
20260506200451 15 298 3.2 6.4 0.00 3.43 1.24 54 1012.0
20260506195945 15 285 4.8 6.4 0.00 3.43 1.24 55 1012.0
20260506195417 15 228 3.2 11.3 0.00 3.43 1.24 54 1012.1
20260506194951 15 278 6.4 11.3 0.00 3.43 1.24 53 1011.9
20260506194424 15 288 3.2 8.0 0.00 3.43 1.24 53 1012.1
20260506193958 15 219 4.8 8.0 0.00 3.43 1.24 52 1012.0
20260506193431 15 56 3.2 8.0 0.00 3.43 1.24 53 1011.8
20260506192427 15 298 3.2 8.0 0.00 3.43 1.24 55 1012.1
20260506192001 16 245 3.2 17.7 0.00 3.43 1.24 57 1011.8
20260506190946 15 292 0.0 6.4 0.00 3.43 1.24 56 1011.5
20260506190419 16 6 4.8 8.0 0.00 3.43 1.24 59 1011.5
20260506185426 15 289 4.8 8.0 0.00 3.43 1.24 58 1011.6
20260506184959 15 241 4.8 8.0 0.00 3.43 1.24 55 1011.7
20260506184416 15 291 3.2 6.4 0.00 3.43 1.24 57 1011.7
20260506183506 15 6 9.7 11.3 0.00 3.43 1.24 54 1011.8
20260506182414 15 31 1.6 6.4 0.00 3.43 1.24 55 1011.7
20260506181948 15 126 3.2 8.0 0.00 3.43 1.24 58 1011.6
20260506181421 15 6 4.8 14.5 0.00 3.43 1.24 60 1011.5
20260506180954 15 292 4.8 14.5 0.00 3.43 1.24 61 1011.7
20260506175925 15 270 4.8 6.4 0.00 3.43 1.24 61 1011.6
20260506175459 14 2 3.2 6.4 0.00 3.43 1.24 63 1011.8
20260506174932 14 33 4.8 6.4 0.00 3.43 1.24 59 1012.0
20260506174506 14 10 4.8 6.4 0.00 3.43 1.24 62 1012.0
20260506173939 14 16 3.2 16.1 0.00 3.43 1.24 58 1012.0
20260506172927 14 53 3.2 8.0 0.00 3.43 1.24 63 1012.0
20260506171923 13 60 9.7 14.5 0.00 3.43 1.24 62 1012.1
20260506171456 13 359 4.8 9.7 0.00 3.43 1.24 64 1012.2
20260506170930 13 304 6.4 8.0 0.00 3.43 1.24 68 1012.1
20260506170503 13 47 4.8 6.4 0.00 3.43 1.24 66 1012.1
20260506165913 13 287 4.8 8.0 0.00 3.43 1.24 67 1012.3
20260506165447 13 3 1.6 8.0 0.00 3.43 1.24 66 1012.4
20260506164920 12 29 1.6 14.5 0.00 3.43 1.24 63 1012.4
20260506164454 12 22 4.8 14.5 0.00 3.43 1.24 64 1012.5
20260506163911 12 296 6.4 11.3 0.00 3.43 1.24 67 1012.4
20260506163445 12 16 1.6 9.7 0.00 3.43 1.24 66 1012.3
20260506162917 12 47 6.4 9.7 0.00 3.43 1.24 64 1012.5
20260506162451 12 337 3.2 6.4 0.00 3.43 1.24 66 1012.3
20260506161924 12 341 3.2 12.9 0.00 3.43 1.24 66 1012.4
20260506160912 12 288 8.0 14.5 0.00 3.43 1.24 70 1012.2
20260506160446 12 20 11.3 14.5 0.00 3.43 1.24 69 1012.2